<?xml version="1.0" encoding="UTF-8" standalone="no" ?>
<gpx xmlns="http://www.topografix.com/GPX/1/1" xmlns:xsi="http://www.w3.org/2001/XMLSchema-instance" xsi:schemaLocation="http://www.topografix.com/GPX/1/1 http://www.topografix.com/GPX/1/1/gpx.xsd" version="1.1" creator="VisuGPX - https://www.visugpx.com">
  <metadata>
    <name>Extreme-Loue-40-600-A</name>
    <desc><![CDATA[Extreme Loue - 40 km - 600 m - Première partie : 12 km - 50 m]]></desc>
  </metadata>
  <trk>
    <name><![CDATA[Extreme-Loue-40-600-A]]></name>
    <trkseg>
      <trkpt lat="47.06856" lon="6.2049">
        <ele>348.147858</ele>
      </trkpt>
      <trkpt lat="47.0692" lon="6.20461">
        <ele>345.266266</ele>
      </trkpt>
      <trkpt lat="47.07013" lon="6.20413">
        <ele>346.427338</ele>
        <time>2020-08-22T09:37:03Z</time>
      </trkpt>
      <trkpt lat="47.07093" lon="6.20366">
        <ele>346.579498</ele>
        <time>2020-08-22T09:37:23Z</time>
      </trkpt>
      <trkpt lat="47.07158" lon="6.20288">
        <ele>345.79895</ele>
        <time>2020-08-22T09:37:42Z</time>
      </trkpt>
      <trkpt lat="47.07194" lon="6.20193">
        <ele>343.0448</ele>
        <time>2020-08-22T09:38:00Z</time>
      </trkpt>
      <trkpt lat="47.07221" lon="6.20039">
        <ele>340.27774</ele>
        <time>2020-08-22T09:38:25Z</time>
      </trkpt>
      <trkpt lat="47.07245" lon="6.19831">
        <ele>340.957825</ele>
        <time>2020-08-22T09:38:59Z</time>
      </trkpt>
      <trkpt lat="47.0726" lon="6.1964">
        <ele>343.150482</ele>
        <time>2020-08-22T09:39:29Z</time>
      </trkpt>
      <trkpt lat="47.07289" lon="6.19462">
        <ele>345.583099</ele>
        <time>2020-08-22T09:39:58Z</time>
      </trkpt>
      <trkpt lat="47.07303" lon="6.19353">
        <ele>343.439392</ele>
        <time>2020-08-22T09:40:16Z</time>
      </trkpt>
      <trkpt lat="47.0728" lon="6.1925">
        <ele>346.781799</ele>
        <time>2020-08-22T09:40:33Z</time>
      </trkpt>
      <trkpt lat="47.07345" lon="6.19083">
        <ele>347.51413</ele>
        <time>2020-08-22T09:41:04Z</time>
      </trkpt>
      <trkpt lat="47.07439" lon="6.1897">
        <ele>346.789185</ele>
        <time>2020-08-22T09:41:32Z</time>
      </trkpt>
      <trkpt lat="47.0753" lon="6.18855">
        <ele>345.635651</ele>
        <time>2020-08-22T09:42:00Z</time>
      </trkpt>
      <trkpt lat="47.07598" lon="6.18759">
        <ele>347.631348</ele>
        <time>2020-08-22T09:42:22Z</time>
      </trkpt>
      <trkpt lat="47.07691" lon="6.18707">
        <ele>348.019989</ele>
        <time>2020-08-22T09:42:45Z</time>
      </trkpt>
      <trkpt lat="47.07799" lon="6.18675">
        <ele>346.279449</ele>
        <time>2020-08-22T09:43:11Z</time>
      </trkpt>
      <trkpt lat="47.07912" lon="6.1865">
        <ele>345.516785</ele>
        <time>2020-08-22T09:43:38Z</time>
      </trkpt>
      <trkpt lat="47.07971" lon="6.18649">
        <ele>344.481506</ele>
        <time>2020-08-22T09:43:52Z</time>
      </trkpt>
      <trkpt lat="47.08025" lon="6.18637">
        <ele>342.704987</ele>
        <time>2020-08-22T09:44:04Z</time>
      </trkpt>
      <trkpt lat="47.08085" lon="6.18712">
        <ele>340.067505</ele>
        <time>2020-08-22T09:44:23Z</time>
      </trkpt>
      <trkpt lat="47.08126" lon="6.18824">
        <ele>341</ele>
        <time>2020-08-22T09:44:43Z</time>
      </trkpt>
      <trkpt lat="47.08133" lon="6.18933">
        <ele>341.090302</ele>
        <time>2020-08-22T09:45:00Z</time>
      </trkpt>
      <trkpt lat="47.08159" lon="6.19015">
        <ele>341.877197</ele>
        <time>2020-08-22T09:45:15Z</time>
      </trkpt>
      <trkpt lat="47.08244" lon="6.19011">
        <ele>341.098999</ele>
        <time>2020-08-22T09:45:35Z</time>
      </trkpt>
      <trkpt lat="47.08316" lon="6.19015">
        <ele>342.532501</ele>
        <time>2020-08-22T09:45:52Z</time>
      </trkpt>
      <trkpt lat="47.08373" lon="6.19037">
        <ele>344.651886</ele>
        <time>2020-08-22T09:46:05Z</time>
      </trkpt>
      <trkpt lat="47.08459" lon="6.18936">
        <ele>344.301514</ele>
        <time>2020-08-22T09:46:31Z</time>
      </trkpt>
      <trkpt lat="47.08525" lon="6.18886">
        <ele>346.489838</ele>
        <time>2020-08-22T09:46:48Z</time>
      </trkpt>
      <trkpt lat="47.08622" lon="6.1879">
        <ele>345.783722</ele>
        <time>2020-08-22T09:47:16Z</time>
      </trkpt>
      <trkpt lat="47.08744" lon="6.18723">
        <ele>345.436737</ele>
        <time>2020-08-22T09:47:46Z</time>
      </trkpt>
      <trkpt lat="47.0882" lon="6.18638">
        <ele>341.274994</ele>
        <time>2020-08-22T09:48:08Z</time>
      </trkpt>
      <trkpt lat="47.0892" lon="6.18628">
        <ele>342.929993</ele>
        <time>2020-08-22T09:48:32Z</time>
      </trkpt>
      <trkpt lat="47.08984" lon="6.18637">
        <ele>344.413788</ele>
        <time>2020-08-22T09:48:47Z</time>
      </trkpt>
      <trkpt lat="47.09099" lon="6.18462">
        <ele>345.986389</ele>
        <time>2020-08-22T09:49:25Z</time>
      </trkpt>
      <trkpt lat="47.09175" lon="6.18409">
        <ele>357.097504</ele>
        <time>2020-08-22T09:49:45Z</time>
      </trkpt>
      <trkpt lat="47.09241" lon="6.18332">
        <ele>360.596558</ele>
        <time>2020-08-22T09:50:05Z</time>
      </trkpt>
      <trkpt lat="47.09289" lon="6.18347">
        <ele>368.027466</ele>
        <time>2020-08-22T09:50:16Z</time>
      </trkpt>
      <trkpt lat="47.09417" lon="6.18227">
        <ele>369.932404</ele>
        <time>2020-08-22T09:50:52Z</time>
      </trkpt>
      <trkpt lat="47.09515" lon="6.1822">
        <ele>375.920013</ele>
        <time>2020-08-22T09:51:15Z</time>
      </trkpt>
      <trkpt lat="47.09611" lon="6.18207">
        <ele>371.921753</ele>
        <time>2020-08-22T09:51:37Z</time>
      </trkpt>
      <trkpt lat="47.09677" lon="6.18171">
        <ele>368.133759</ele>
        <time>2020-08-22T09:51:54Z</time>
      </trkpt>
      <trkpt lat="47.09793" lon="6.18156">
        <ele>368.54129</ele>
        <time>2020-08-22T09:52:21Z</time>
      </trkpt>
      <trkpt lat="47.09941" lon="6.18179">
        <ele>366.698792</ele>
        <time>2020-08-22T09:52:56Z</time>
      </trkpt>
      <trkpt lat="47.10072" lon="6.182">
        <ele>358.805237</ele>
        <time>2020-08-22T09:53:26Z</time>
      </trkpt>
      <trkpt lat="47.10157" lon="6.18259">
        <ele>358.748291</ele>
        <time>2020-08-22T09:53:48Z</time>
      </trkpt>
      <trkpt lat="47.10322" lon="6.18405">
        <ele>363.265289</ele>
        <time>2020-08-22T09:54:33Z</time>
      </trkpt>
      <trkpt lat="47.10576" lon="6.18534">
        <ele>360.479889</ele>
        <time>2020-08-22T09:55:36Z</time>
      </trkpt>
      <trkpt lat="47.10656" lon="6.18525">
        <ele>363.354736</ele>
        <time>2020-08-22T09:55:55Z</time>
      </trkpt>
      <trkpt lat="47.10455" lon="6.18393">
        <ele>361.265961</ele>
        <time>2020-08-22T09:56:46Z</time>
      </trkpt>
      <trkpt lat="47.10294" lon="6.18241">
        <ele>358.254059</ele>
        <time>2020-08-22T09:57:31Z</time>
      </trkpt>
      <trkpt lat="47.10178" lon="6.18113">
        <ele>355.707611</ele>
        <time>2020-08-22T09:58:05Z</time>
      </trkpt>
      <trkpt lat="47.10094" lon="6.1805">
        <ele>352.211731</ele>
        <time>2020-08-22T09:58:27Z</time>
      </trkpt>
      <trkpt lat="47.10007" lon="6.17972">
        <ele>352.714508</ele>
        <time>2020-08-22T09:58:51Z</time>
      </trkpt>
      <trkpt lat="47.09921" lon="6.17922">
        <ele>351.18631</ele>
        <time>2020-08-22T09:59:12Z</time>
      </trkpt>
      <trkpt lat="47.09761" lon="6.17857">
        <ele>341.501556</ele>
        <time>2020-08-22T09:59:51Z</time>
      </trkpt>
      <trkpt lat="47.09687" lon="6.17845">
        <ele>340.269531</ele>
        <time>2020-08-22T10:00:08Z</time>
      </trkpt>
      <trkpt lat="47.09599" lon="6.17616">
        <ele>335.60376</ele>
        <time>2020-08-22T10:00:50Z</time>
      </trkpt>
      <trkpt lat="47.09639" lon="6.17499">
        <ele>340.130249</ele>
        <time>2020-08-22T10:01:11Z</time>
      </trkpt>
      <trkpt lat="47.09683" lon="6.17269">
        <ele>342.86499</ele>
        <time>2020-08-22T10:01:49Z</time>
      </trkpt>
      <trkpt lat="47.09737" lon="6.1713">
        <ele>345.361572</ele>
        <time>2020-08-22T10:02:14Z</time>
      </trkpt>
      <trkpt lat="47.0979" lon="6.17053">
        <ele>351.282745</ele>
        <time>2020-08-22T10:02:32Z</time>
      </trkpt>
      <trkpt lat="47.09878" lon="6.16851">
        <ele>347.463654</ele>
        <time>2020-08-22T10:03:10Z</time>
      </trkpt>
      <trkpt lat="47.09996" lon="6.16748">
        <ele>345.838287</ele>
        <time>2020-08-22T10:03:42Z</time>
      </trkpt>
      <trkpt lat="47.10124" lon="6.16637">
        <ele>341.570099</ele>
        <time>2020-08-22T10:04:17Z</time>
      </trkpt>
      <trkpt lat="47.10204" lon="6.16585">
        <ele>341.558136</ele>
        <time>2020-08-22T10:04:37Z</time>
      </trkpt>
      <trkpt lat="47.10284" lon="6.16525">
        <ele>339.815552</ele>
        <time>2020-08-22T10:04:58Z</time>
      </trkpt>
      <trkpt lat="47.10334" lon="6.16476">
        <ele>337.420013</ele>
        <time>2020-08-22T10:05:12Z</time>
      </trkpt>
      <trkpt lat="47.10389" lon="6.1638">
        <ele>335.326752</ele>
        <time>2020-08-22T10:05:32Z</time>
      </trkpt>
      <trkpt lat="47.10456" lon="6.16138">
        <ele>335.319244</ele>
        <time>2020-08-22T10:06:14Z</time>
      </trkpt>
      <trkpt lat="47.10422" lon="6.16071">
        <ele>330.652954</ele>
        <time>2020-08-22T10:06:27Z</time>
      </trkpt>
      <trkpt lat="47.10397" lon="6.16028">
        <ele>330.788757</ele>
        <time>2020-08-22T10:06:36Z</time>
      </trkpt>
      <trkpt lat="47.10368" lon="6.15985">
        <ele>334.138794</ele>
        <time>2020-08-22T10:06:45Z</time>
      </trkpt>
      <trkpt lat="47.10357" lon="6.15951">
        <ele>336.545563</ele>
        <time>2020-08-22T10:06:51Z</time>
      </trkpt>
      <trkpt lat="47.10343" lon="6.15994">
        <ele>335.358337</ele>
        <time>2020-08-22T10:06:59Z</time>
      </trkpt>
      <trkpt lat="47.10323" lon="6.16017">
        <ele>335.674805</ele>
        <time>2020-08-22T10:07:05Z</time>
      </trkpt>
      <trkpt lat="47.10226" lon="6.1612">
        <ele>335.936707</ele>
        <time>2020-08-22T10:07:33Z</time>
      </trkpt>
      <trkpt lat="47.10218" lon="6.16132">
        <ele>335.839386</ele>
        <time>2020-08-22T10:07:36Z</time>
      </trkpt>
      <trkpt lat="47.1019" lon="6.16123">
        <ele>337.243744</ele>
        <time>2020-08-22T10:07:42Z</time>
      </trkpt>
      <trkpt lat="47.10172" lon="6.16117">
        <ele>338.07901</ele>
        <time>2020-08-22T07:45:12Z</time>
      </trkpt>
      <trkpt lat="47.10143" lon="6.16116">
        <ele>338.76001</ele>
        <time>2020-08-22T07:45:19Z</time>
      </trkpt>
      <trkpt lat="47.10123" lon="6.16125">
        <ele>339.022156</ele>
        <time>2020-08-22T07:45:24Z</time>
      </trkpt>
      <trkpt lat="47.10138" lon="6.16156">
        <ele>338.22876</ele>
        <time>2020-08-22T07:45:30Z</time>
      </trkpt>
      <trkpt lat="47.10167" lon="6.16164">
        <ele>337.488739</ele>
        <time>2020-08-22T07:45:37Z</time>
      </trkpt>
      <trkpt lat="47.10176" lon="6.1618">
        <ele>336.846252</ele>
        <time>2020-08-22T07:45:40Z</time>
      </trkpt>
      <trkpt lat="47.1018" lon="6.16208">
        <ele>336.029999</ele>
        <time>2020-08-22T07:45:44Z</time>
      </trkpt>
      <trkpt lat="47.10168" lon="6.1623">
        <ele>335.837494</ele>
        <time>2020-08-22T07:45:49Z</time>
      </trkpt>
      <trkpt lat="47.10147" lon="6.16243">
        <ele>335.912506</ele>
        <time>2020-08-22T07:45:54Z</time>
      </trkpt>
      <trkpt lat="47.10119" lon="6.1624">
        <ele>336.562012</ele>
        <time>2020-08-22T07:46:01Z</time>
      </trkpt>
      <trkpt lat="47.10019" lon="6.16327">
        <ele>335.867493</ele>
        <time>2020-08-22T07:46:28Z</time>
      </trkpt>
      <trkpt lat="47.09476" lon="6.16877">
        <ele>338</ele>
        <time>2020-08-22T07:49:02Z</time>
      </trkpt>
      <trkpt lat="47.09385" lon="6.16787">
        <ele>340.285004</ele>
        <time>2020-08-22T07:49:28Z</time>
      </trkpt>
      <trkpt lat="47.09336" lon="6.16834">
        <ele>339.80249</ele>
        <time>2020-08-22T07:49:41Z</time>
      </trkpt>
      <trkpt lat="47.09269" lon="6.16916">
        <ele>339.394989</ele>
        <time>2020-08-22T07:50:02Z</time>
      </trkpt>
      <trkpt lat="47.09193" lon="6.17182">
        <ele>337.616913</ele>
        <time>2020-08-22T07:50:47Z</time>
      </trkpt>
      <trkpt lat="47.08924" lon="6.17643">
        <ele>341.090912</ele>
        <time>2020-08-22T07:52:24Z</time>
      </trkpt>
      <trkpt lat="47.08705" lon="6.18025">
        <ele>339.325256</ele>
        <time>2020-08-22T07:53:43Z</time>
      </trkpt>
      <trkpt lat="47.08251" lon="6.18317">
        <ele>342.230011</ele>
        <time>2020-08-22T07:55:39Z</time>
      </trkpt>
      <trkpt lat="47.08044" lon="6.18596">
        <ele>347.269135</ele>
        <time>2020-08-22T07:56:45Z</time>
      </trkpt>
    </trkseg>
  </trk>
</gpx>